Norwich, United Kingdom

10:10 AM BST on May 27, 2017 (GMT +0100)
Norwich

Weather History for EGSH - September, 2013

Change the Weather History Date:

Friday, September 6, 2013

  Actual Average Record
Temperature  
Mean Temperature 60 °F -  
Max Temperature 68 °F 62 °F 80 °F (1999)
Min Temperature 51 °F 49 °F 44 °F (2012)
Degree Days  
Heating Degree Days 6    
Growing Degree Days 10 (Base 50)    
Moisture  
Dew Point 58 °F    
Average Humidity 94    
Maximum Humidity 100    
Minimum Humidity 68    
Precipitation  
Precipitation 0.00 in - - ()
Sea Level Pressure  
Sea Level Pressure 29.76 in    
Wind  
Wind Speed 6 mph ()    
Max Wind Speed 15 mph    
Max Gust Speed -    
Visibility 2.9 miles    
Events Fog , Rain    
Averages and records for this station are not official NWS values.
T = Trace of Precipitation, MM = Missing Value Source: Averaged Metar Reports

Daily Weather History Graph

Daily Weather History Graph

Search for Another Location

Airport or City:

Trip Planner

Search our weather history database for the weather conditions in past years. The results will help you decide how hot, cold, wet, or windy it might be!

Date:

Astronomy

Sep. 06, 2013 Rise Set
Actual Time 6:13 AM BST 7:31 PM BST
Civil Twilight 5:38 AM BST 8:06 PM BST
Nautical Twilight 4:55 AM BST 8:49 PM BST
Astronomical Twilight 4:08 AM BST 9:35 PM BST
Moon 7:25 AM BST (9/6) 7:28 PM BST (9/6)
Length of Visible Light 14h 27m
Length of Day
13h 17m
New Moon, 1% of the Moon is Illuminated
Sep 6
New Moon
Sep 12
First Quarter
Sep 19
Full
Sep 27
Last Quarter
Oct 5
New

Hourly Weather History & Observations

Time (BST) Temp. Dew Point Humidity Pressure Visibility Wind Dir Wind Speed Gust Speed Precip Events Conditions
12:20 AM 60.8 °F 60.8 °F 100% 29.74 in 0.1 mi North 6.9 mph - N/A Fog Fog
12:50 AM 60.8 °F 60.8 °F 100% 29.74 in 0.1 mi North 5.8 mph - N/A Fog Fog
1:20 AM 60.8 °F 60.8 °F 100% 29.74 in 0.1 mi North 5.8 mph - N/A Fog Fog
1:50 AM 60.8 °F 60.8 °F 100% 29.74 in 0.1 mi North 5.8 mph - N/A Fog Fog
2:20 AM 60.8 °F 60.8 °F 100% 29.74 in 0.1 mi North 6.9 mph - N/A Fog Fog
2:50 AM 59.0 °F 59.0 °F 100% 29.71 in 0.1 mi North 8.1 mph - N/A Fog Fog
3:20 AM - - N/A% 29.71 in 0.1 mi North 5.8 mph - N/A Fog Fog
3:50 AM - - N/A% 29.71 in 0.1 mi NNW 5.8 mph - N/A Fog Fog
4:20 AM - - N/A% 29.71 in 0.1 mi NW 5.8 mph - N/A Fog Fog
4:50 AM - - N/A% 29.71 in 0.2 mi NNW 6.9 mph - N/A Fog Fog
5:20 AM - - N/A% 29.71 in 0.2 mi NW 5.8 mph - N/A Fog Fog
5:50 AM - - N/A% 29.71 in 1.1 mi NNW 4.6 mph - N/A   Light Drizzle
6:20 AM - - N/A% 29.74 in 0.7 mi WNW 5.8 mph - N/A   Light Drizzle
6:50 AM - - N/A% 29.71 in 0.6 mi NNW 4.6 mph - N/A Fog Fog
7:50 AM 59.0 °F 59.0 °F 100% 29.74 in 0.4 mi Variable 1.2 mph - N/A Fog Fog
8:20 AM - - N/A% 29.74 in 0.4 mi Variable 1.2 mph - N/A Fog Fog
8:50 AM 59.0 °F 59.0 °F 100% 29.74 in 1.0 mi Variable 2.3 mph - N/A Fog Fog
9:20 AM - - N/A% 29.74 in 1.3 mi SW 4.6 mph - N/A Rain Rain
9:50 AM - - N/A% 29.77 in 1.3 mi WSW 5.8 mph - N/A Rain Light Rain
10:20 AM - - N/A% 29.74 in 1.6 mi Variable 2.3 mph - N/A   Mostly Cloudy
10:50 AM 60.8 °F 60.8 °F 100% 29.74 in 1.6 mi WSW 5.8 mph - N/A   Mostly Cloudy
11:20 AM 62.6 °F 62.6 °F 100% 29.74 in 3.1 mi SW 4.6 mph - N/A   Mostly Cloudy
11:50 AM 64.4 °F 64.4 °F 100% 29.74 in 3.7 mi WSW 8.1 mph - N/A   Mostly Cloudy
1:20 PM 68.0 °F 57.2 °F 68% 29.74 in 6.2 mi WSW 12.7 mph - N/A   Partly Cloudy
1:50 PM 62.6 °F 55.4 °F 77% 29.77 in 6.2 mi SW 15.0 mph - N/A Rain Light Rain Showers
2:20 PM 60.8 °F 55.4 °F 82% 29.77 in 6.2 mi SW 9.2 mph - N/A Rain Light Rain
2:50 PM 60.8 °F 57.2 °F 88% 29.77 in 6.2 mi SW 9.2 mph - N/A Rain Rain
3:20 PM 60.8 °F 57.2 °F 88% 29.77 in 4.3 mi South 5.8 mph - N/A Rain Rain
3:50 PM 60.8 °F 57.2 °F 88% 29.77 in 4.3 mi Variable 3.5 mph - N/A Rain Rain
4:20 PM 60.8 °F 59.0 °F 94% 29.77 in 4.3 mi SSE 6.9 mph - N/A Rain Rain
4:50 PM 60.8 °F 59.0 °F 94% 29.77 in 4.3 mi SSE 8.1 mph - N/A Rain Rain
5:20 PM 60.8 °F 59.0 °F 94% 29.77 in 5.0 mi SSE 8.1 mph - N/A Rain Rain
5:50 PM 60.8 °F 59.0 °F 94% 29.77 in 2.5 mi SSE 8.1 mph - N/A Rain Rain
6:50 PM 59.0 °F 57.2 °F 94% 29.77 in 5.6 mi SSE 6.9 mph - N/A   Mostly Cloudy
7:20 PM 60.8 °F 59.0 °F 94% 29.77 in 5.6 mi SSE 6.9 mph - N/A   Mostly Cloudy
7:50 PM 60.8 °F 59.0 °F 94% 29.80 in 5.6 mi South 10.4 mph - N/A Rain Rain
8:20 PM 59.0 °F 57.2 °F 94% 29.80 in 5.6 mi South 8.1 mph - N/A   Scattered Clouds
8:50 PM 57.2 °F 55.4 °F 94% 29.80 in 6.2 mi South 8.1 mph - N/A   Scattered Clouds
9:20 PM 57.2 °F 55.4 °F 94% 29.80 in 6.2 mi South 8.1 mph - N/A   Scattered Clouds
10:20 PM 55.4 °F 53.6 °F 94% 29.83 in 6.2 mi SSW 8.1 mph - N/A   Unknown
10:50 PM 53.6 °F 51.8 °F 94% 29.83 in 5.6 mi SSW 5.8 mph - N/A   Unknown
11:20 PM 51.8 °F 51.8 °F 100% 29.83 in 4.3 mi SSW 5.8 mph - N/A   Unknown
11:50 PM 51.8 °F 50.0 °F 94% 29.83 in 4.3 mi SSW 4.6 mph - N/A   Unknown